Regional Weather Roundup
Issued by NWS Northern Indiana

Home | Current Version | Previous Version | Text Only | Print | Product List | Glossary Off
Versions: 1 2 3 4 5 6 7 8 9 10 11 12 13 14 15 16 17 18 19 20 21 22 23 24 25 26 27 28 29 30 31 32 33 34 35 36 37 38 39 40 41 42 43 44 45 46 47 48 49 50

000
ASUS43 KIWX 262200
RWRIWX

KIWX WEATHER ROUNDUP
NATIONAL WEATHER SERVICE NORTHERN INDIANA
600 PM EDT SUN APR 26 2015

NOTE: "FAIR" INDICATES FEW OR NO CLOUDS BELOW 12,000 FEET WITH NO
SIGNIFICANT WEATHER AND/OR OBSTRUCTIONS TO VISIBILITY.

* THESE STATIONS ARE NOT UNDER NWS QUALITY CONTROL. THEY ALSO MAY NOT
  REPORT WEATHER SUCH AS PRECIPITATION OR FOG.

INZ001>027-262300-
NORTHERN INDIANA

CITY           SKY/WX    TMP DP  RH WIND       PRES   REMARKS
GARY*          SUNNY     50  28  43 N20       30.01F
KNOX*          SUNNY     52  10  19 N23       29.95S
SOUTH BEND     SUNNY     54  29  38 N21       29.96S
ELKHART*       SUNNY     55  25  30 NW12G20   29.93S
GOSHEN         PTSUNNY   56  31  38 NE15      29.91S
WARSAW*        PTSUNNY   57  32  38 N10G20    29.90F
ANGOLA*        MOSUNNY   55  30  38 NE8       29.90S
FORT WAYNE     PTSUNNY   58  34  40 N15       29.89F
PERU/GRISSOM   MOSUNNY   57  32  39 N13G22    29.89F

$$
INZ028>050-262300-
CENTRAL INDIANA

CITY           SKY/WX    TMP DP  RH WIND       PRES   REMARKS
LAFAYETTE      SUNNY     55  32  41 N16       29.93R
KOKOMO*        MOSUNNY   57  36  44 N10G21    29.90S
MUNCIE*        PTSUNNY   57  34  41 N14       29.88F
INDIANAPOLIS   MOSUNNY   57  33  40 N17       29.89S

$$
MIZ043>046-050>051-056>058-064>065-071>073-077>080-262300-
SOUTHWEST LOWER MICHIGAN

CITY           SKY/WX    TMP DP  RH WIND       PRES   REMARKS
BATTLE CREEK   MOSUNNY   57  28  33 NW12      29.91F
BENTON HARBOR  SUNNY     46  29  51 N10G20    29.97F
COLDWATER*     MOSUNNY   56  28  34 NE10      29.90S
HILLSDALE*     MOSUNNY   55  28  35 N9        29.90R
HOLLAND        SUNNY     55  30  38 NW13      29.96S
GRAND RAPIDS   PTSUNNY   60  27  28 N13       29.91S
KALAMAZOO      CLOUDY    58  30  34 N14       29.91F
STURGIS*       MOSUNNY   57  28  33 CALM      29.90S
THREE RIVERS*  FAIR      57  29  33 NE13      29.91F

$$
OHZ001>008-015>018-024>025-262300-
NORTHWEST OHIO

CITY           SKY/WX    TMP DP  RH WIND       PRES   REMARKS
DEFIANCE       PTSUNNY   59  29  31 N10       29.88S
FINDLAY        MOSUNNY   57  30  35 N12G20    29.86S
TOLEDO EXPRESS PTSUNNY   58  27  30 N12G20    29.88R
TOLEDO METCALF SUNNY     58  28  32 NE12G18   29.89R
LIMA           SUNNY     55  32  41 NE9G21    29.87S

$$
AND FOR LAKE MICHIGAN COASTAL AND OPEN LAKE BUOY OBSERVATIONS

STATION/POSITION TEMP    WIND        PRES    VSBY  WAVE
                 AIR SEA DIR/SP/G                  HT/PER
                 (F)     (DEG/KT/KT) (MB)    (MI)  (FT/S)
CALUMET HARBOR    45     340/ 12/ 17   N/A
MICHIGAN CITY     39      10/  9/ 11   N/A
BURNS HARBOR      42     360/ 14/ 17 1016.3S
SAINT JOSEPH      44     350/ 14/ 17 1015.6F
MICHIGAN CITY     40 45  360/ 14/ 19   N/A           4/ 4

$$
&&



USA.gov is the U.S. government's official web portal to all federal, state and local government web resources and services.